Location: Kosice
(0.0000°N, 21.2500°E)
Time: 06:06:35
(UTC+01:00)

Meteor 1-27 - Pass Details

Date: 24 January 2021
Orbit: 837 x 893 km, 81.3° (Epoch: 04 March)

Event Time Altitude Azimuth Distance (km) Brightness Sun altitude
Exits shadow 19:30:29 27° 0° (N) 1,569 5.4 -24.3°
Maximum altitude 19:33:40 82° 85° (E) 848 4.0 -25.1°
Drops below altitude 10° 19:39:13 10° 172° (S) 2,457 6.7 -26.4°
Sets 19:41:39 0° 173° (S) 3,399 7.5 -26.9°
